Time,TemperatureF,DewpointF,PressureIn,WindDirection,WindDirectionDegrees,WindSpeedMPH,WindSpeedGustMPH,Humidity,HourlyPrecipIn,Conditions,Clouds,dailyrainin,SoftwareType,DateUTC
2013-06-27 00:08:00,71.3,66.0,29.88,NW,306,1.0,2.0,82,0.00,,,0.00,weatherlink.com 1.10,2013-06-27 05:08:00,
2013-06-27 00:24:00,69.6,65.0,29.87,NW,306,0.0,0.0,85,0.00,,,0.00,weatherlink.com 1.10,2013-06-27 05:24:00,
2013-06-27 00:38:00,68.8,65.0,29.87,NW,306,0.0,0.0,86,0.00,,,0.00,weatherlink.com 1.10,2013-06-27 05:38:00,
2013-06-27 00:54:00,68.5,65.0,29.87,NW,306,0.0,1.0,87,0.00,,,0.00,weatherlink.com 1.10,2013-06-27 05:54:00,
2013-06-27 01:09:00,68.3,65.0,29.87,NW,306,0.0,0.0,89,0.00,,,0.00,weatherlink.com 1.10,2013-06-27 06:09:00,
2013-06-27 01:24:00,68.9,66.0,29.87,NW,306,0.0,0.0,90,0.00,,,0.00,weatherlink.com 1.10,2013-06-27 06:24:00,
2013-06-27 01:39:00,67.8,65.0,29.87,NW,306,0.0,0.0,89,0.00,,,0.00,weatherlink.com 1.10,2013-06-27 06:39:00,
2013-06-27 01:54:00,67.3,64.0,29.86,NW,306,0.0,0.0,90,0.00,,,0.00,weatherlink.com 1.10,2013-06-27 06:54:00,
2013-06-27 02:09:00,67.2,65.0,29.87,NW,306,3.0,3.0,91,0.00,,,0.00,weatherlink.com 1.10,2013-06-27 07:09:00,
2013-06-27 02:24:00,68.0,65.0,29.88,NW,306,2.0,3.0,91,0.00,,,0.00,weatherlink.com 1.10,2013-06-27 07:24:00,
2013-06-27 02:39:00,67.9,65.0,29.88,NW,306,3.0,4.0,91,0.00,,,0.00,weatherlink.com 1.10,2013-06-27 07:39:00,
2013-06-27 02:54:00,68.9,65.0,29.88,NW,306,1.0,3.0,86,0.00,,,0.00,weatherlink.com 1.10,2013-06-27 07:54:00,
2013-06-27 03:09:00,68.9,64.0,29.88,NW,306,0.0,0.0,83,0.00,,,0.00,weatherlink.com 1.10,2013-06-27 08:09:00,
2013-06-27 03:24:00,67.8,63.0,29.88,NW,306,0.0,0.0,85,0.00,,,0.00,weatherlink.com 1.10,2013-06-27 08:24:00,
2013-06-27 03:40:00,67.4,63.0,29.88,NW,306,0.0,0.0,86,0.00,,,0.00,weatherlink.com 1.10,2013-06-27 08:40:00,
2013-06-27 03:54:00,67.6,64.0,29.88,NW,306,0.0,0.0,87,0.00,,,0.00,weatherlink.com 1.10,2013-06-27 08:54:00,
2013-06-27 04:09:00,66.7,63.0,29.89,NW,306,0.0,2.0,88,0.00,,,0.00,weatherlink.com 1.10,2013-06-27 09:09:00,
2013-06-27 04:24:00,66.6,63.0,29.89,NW,306,0.0,0.0,89,0.00,,,0.00,weatherlink.com 1.10,2013-06-27 09:24:00,
2013-06-27 04:39:00,66.7,64.0,29.89,NW,306,0.0,0.0,90,0.00,,,0.00,weatherlink.com 1.10,2013-06-27 09:39:00,
2013-06-27 04:54:00,66.2,63.0,29.90,NW,306,0.0,0.0,90,0.00,,,0.00,weatherlink.com 1.10,2013-06-27 09:54:00,
2013-06-27 05:09:00,65.8,63.0,29.89,NW,306,0.0,0.0,90,0.00,,,0.00,weatherlink.com 1.10,2013-06-27 10:09:00,
2013-06-27 05:24:00,65.8,63.0,29.89,NW,306,0.0,0.0,91,0.00,,,0.00,weatherlink.com 1.10,2013-06-27 10:24:00,
2013-06-27 05:40:00,66.2,64.0,29.90,NW,306,0.0,0.0,91,0.00,,,0.00,weatherlink.com 1.10,2013-06-27 10:40:00,
2013-06-27 05:54:00,66.4,64.0,29.91,NW,306,0.0,0.0,91,0.00,,,0.00,weatherlink.com 1.10,2013-06-27 10:54:00,
2013-06-27 06:10:00,67.5,65.0,29.91,NNE,24,0.0,5.0,92,0.00,,,0.00,weatherlink.com 1.10,2013-06-27 11:10:00,
2013-06-27 06:25:00,67.9,65.0,29.91,NNE,26,0.0,5.0,91,0.00,,,0.00,weatherlink.com 1.10,2013-06-27 11:25:00,
2013-06-27 06:39:00,68.1,65.0,29.92,NNE,22,4.0,5.0,91,0.00,,,0.00,weatherlink.com 1.10,2013-06-27 11:39:00,
2013-06-27 06:55:00,68.9,66.0,29.94,NNW,329,2.0,4.0,91,0.00,,,0.00,weatherlink.com 1.10,2013-06-27 11:55:00,
2013-06-27 07:11:00,68.9,66.0,29.93,WNW,298,3.0,4.0,91,0.00,,,0.00,weatherlink.com 1.10,2013-06-27 12:11:00,
2013-06-27 07:26:00,69.9,67.0,29.93,ENE,65,3.0,6.0,90,0.00,,,0.00,weatherlink.com 1.10,2013-06-27 12:26:00,
2013-06-27 07:40:00,69.6,66.0,29.91,NE,54,0.0,8.0,89,0.00,,,0.00,weatherlink.com 1.10,2013-06-27 12:40:00,
2013-06-27 07:55:00,69.9,67.0,29.89,East,88,3.0,7.0,90,0.00,,,0.00,weatherlink.com 1.10,2013-06-27 12:55:00,
2013-06-27 08:10:00,70.5,67.0,29.91,East,87,2.0,3.0,89,0.00,,,0.00,weatherlink.com 1.10,2013-06-27 13:10:00,
2013-06-27 08:26:00,71.9,69.0,29.92,East,88,3.0,3.0,89,0.00,,,0.00,weatherlink.com 1.10,2013-06-27 13:26:00,
2013-06-27 08:41:00,72.1,68.0,29.95,WSW,253,4.0,13.0,86,0.00,,,0.00,weatherlink.com 1.10,2013-06-27 13:41:00,
2013-06-27 08:55:00,72.1,67.0,29.95,West,271,5.0,10.0,84,0.00,,,0.00,weatherlink.com 1.10,2013-06-27 13:55:00,
2013-06-27 09:10:00,71.8,67.0,29.95,WNW,286,0.0,5.0,85,0.00,,,0.00,weatherlink.com 1.10,2013-06-27 14:10:00,
2013-06-27 09:25:00,72.2,67.0,29.98,NNW,341,3.0,9.0,83,0.00,,,0.00,weatherlink.com 1.10,2013-06-27 14:25:00,
2013-06-27 18:28:00,-999.0,-99.9,29.93,North,-999,-999.0,-999.0,-999,0.00,,,0.00,weatherlink.com 1.10,2013-06-27 23:28:00,
2013-06-27 18:43:00,84.1,69.0,29.94,NNW,348,1.0,8.0,61,0.00,,,0.00,weatherlink.com 1.10,2013-06-27 23:43:00,
2013-06-27 18:58:00,83.8,69.0,29.94,NNW,334,0.0,5.0,62,0.00,,,0.00,weatherlink.com 1.10,2013-06-27 23:58:00,
2013-06-27 19:13:00,84.4,70.0,29.93,NNW,337,0.0,3.0,63,0.00,,,0.00,weatherlink.com 1.10,2013-06-28 00:13:00,
2013-06-27 19:28:00,84.7,70.0,29.93,NNW,337,1.0,5.0,61,0.00,,,0.00,weatherlink.com 1.10,2013-06-28 00:28:00,
2013-06-27 19:43:00,84.9,72.0,29.93,NNW,337,2.0,3.0,66,0.00,,,0.00,weatherlink.com 1.10,2013-06-28 00:43:00,
2013-06-27 19:58:00,84.8,73.0,29.93,NNW,337,0.0,2.0,67,0.00,,,0.00,weatherlink.com 1.10,2013-06-28 00:58:00,
2013-06-27 20:29:00,82.1,71.0,29.92,NNW,337,2.0,3.0,69,0.00,,,0.00,weatherlink.com 1.10,2013-06-28 01:29:00,
2013-06-27 20:44:00,80.4,68.0,29.92,NNW,337,2.0,5.0,67,0.00,,,0.00,weatherlink.com 1.10,2013-06-28 01:44:00,
2013-06-27 20:59:00,78.7,68.0,29.93,NNW,336,3.0,5.0,70,0.00,,,0.00,weatherlink.com 1.10,2013-06-28 01:59:00,
2013-06-27 21:08:00,77.8,67.6,29.93,NNW,336,2.0,3.0,71,0.00,,,0.00,Wunderground v.1.15,2013-06-28 02:08:00,
2013-06-27 21:22:00,76.2,66.9,29.93,NNW,331,2.0,5.0,73,0.00,,,0.00,Wunderground v.1.15,2013-06-28 02:22:00,
2013-06-27 21:28:00,75.9,66.2,29.94,NNW,333,3.0,5.0,72,0.00,,,0.00,Wunderground v.1.15,2013-06-28 02:28:00,
2013-06-27 21:34:00,75.5,66.6,29.94,NNW,333,2.0,5.0,74,0.00,,,0.00,Wunderground v.1.15,2013-06-28 02:34:00,
2013-06-27 21:40:00,74.4,66.3,29.95,NNW,333,2.0,5.0,76,0.00,,,0.00,Wunderground v.1.15,2013-06-28 02:40:00,
2013-06-27 21:45:00,73.8,66.5,29.95,NNW,333,2.0,5.0,78,0.00,,,0.00,Wunderground v.1.15,2013-06-28 02:45:00,
2013-06-27 21:51:00,73.3,66.0,29.96,NNW,333,2.0,5.0,78,0.00,,,0.00,Wunderground v.1.15,2013-06-28 02:51:00,
2013-06-27 21:56:00,73.2,66.3,29.96,NNW,333,2.0,5.0,79,0.00,,,0.00,Wunderground v.1.15,2013-06-28 02:56:00,
2013-06-27 22:01:00,72.5,66.0,29.96,NNW,333,1.0,2.0,80,0.00,,,0.00,weatherlink.com 1.10,2013-06-28 03:01:00,
2013-06-27 22:07:00,71.6,65.8,29.97,NNW,333,1.0,5.0,82,0.00,,,0.00,Wunderground v.1.15,2013-06-28 03:07:00,
2013-06-27 22:14:00,71.3,65.5,29.97,NNW,333,1.0,5.0,82,0.00,,,0.00,Wunderground v.1.15,2013-06-28 03:14:00,
2013-06-27 22:20:00,71.4,65.6,29.97,NNW,333,2.0,5.0,82,0.00,,,0.00,Wunderground v.1.15,2013-06-28 03:20:00,
2013-06-27 22:25:00,71.7,65.6,29.97,NNW,333,2.0,5.0,81,0.00,,,0.00,Wunderground v.1.15,2013-06-28 03:25:00,
2013-06-27 22:30:00,71.6,65.5,29.97,NNW,333,2.0,3.0,81,0.00,,,0.00,Wunderground v.1.15,2013-06-28 03:30:00,
2013-06-27 22:36:00,71.3,65.2,29.97,NNW,333,2.0,3.0,81,0.00,,,0.00,Wunderground v.1.15,2013-06-28 03:36:00,
2013-06-27 22:42:00,71.2,65.1,29.97,NNW,333,2.0,3.0,81,0.00,,,0.00,Wunderground v.1.15,2013-06-28 03:42:00,
2013-06-27 22:48:00,71.1,65.3,29.97,NNW,333,2.0,3.0,82,0.00,,,0.00,Wunderground v.1.15,2013-06-28 03:48:00,
2013-06-27 22:54:00,70.5,65.1,29.97,NNW,333,2.0,3.0,83,0.00,,,0.00,Wunderground v.1.15,2013-06-28 03:54:00,
2013-06-27 23:00:00,70.2,65.0,29.97,NNW,333,2.0,3.0,83,0.00,,,0.00,weatherlink.com 1.10,2013-06-28 04:00:00,
2013-06-27 23:02:00,70.3,64.9,29.97,NNW,333,2.0,3.0,83,0.00,,,0.00,Wunderground v.1.15,2013-06-28 04:02:00,
2013-06-27 23:03:00,70.3,64.9,29.97,NNW,333,2.0,3.0,83,0.00,,,0.00,Wunderground v.1.15,2013-06-28 04:03:00,
2013-06-27 23:04:00,70.4,65.0,29.97,NNW,333,2.0,3.0,83,0.00,,,0.00,Wunderground v.1.15,2013-06-28 04:04:00,
2013-06-27 23:08:00,70.7,64.9,29.97,NNW,333,2.0,3.0,82,0.00,,,0.00,Wunderground v.1.15,2013-06-28 04:08:00,
2013-06-27 23:13:00,70.6,64.8,29.97,NNW,333,1.0,3.0,82,0.00,,,0.00,Wunderground v.1.15,2013-06-28 04:13:00,
2013-06-27 23:19:00,69.9,64.5,29.97,NNW,333,2.0,3.0,83,0.00,,,0.00,Wunderground v.1.15,2013-06-28 04:19:00,
2013-06-27 23:26:00,69.7,64.6,29.97,NNW,333,2.0,3.0,84,0.00,,,0.00,Wunderground v.1.15,2013-06-28 04:26:00,
2013-06-27 23:31:00,69.8,65.0,29.97,NNW,333,1.0,3.0,85,0.00,,,0.00,weatherlink.com 1.10,2013-06-28 04:31:00,
2013-06-27 23:37:00,70.1,64.7,29.97,NNW,332,2.0,3.0,83,0.00,,,0.00,Wunderground v.1.15,2013-06-28 04:37:00,
2013-06-27 23:42:00,70.5,64.7,29.97,NNW,331,3.0,3.0,82,0.00,,,0.00,Wunderground v.1.15,2013-06-28 04:42:00,
2013-06-27 23:48:00,70.7,64.9,29.97,NNW,331,3.0,3.0,82,0.00,,,0.00,Wunderground v.1.15,2013-06-28 04:48:00,
2013-06-27 23:53:00,70.7,64.9,29.97,NNW,332,3.0,3.0,82,0.00,,,0.00,Wunderground v.1.15,2013-06-28 04:53:00,
2013-06-27 23:59:00,70.2,64.4,29.97,NNW,331,2.0,3.0,82,0.00,,,0.00,Wunderground v.1.15,2013-06-28 04:59:00,